Weather History for KNKT - December, 2012

Change the Weather History Date:

Monday, December 3, 2012

  Actual Average Record
Temperature  
Mean Temperature 62 °F -  
Max Temperature 75 °F 59 °F 75 °F (1998)
Min Temperature 48 °F 38 °F 27 °F (2008)
Degree Days  
Heating Degree Days 4    
Growing Degree Days 12 (Base 50)    
Moisture  
Dew Point 51 °F    
Average Humidity 83    
Maximum Humidity 100    
Minimum Humidity 44    
Precipitation  
Precipitation 0.00 in - - ()
Sea Level Pressure  
Sea Level Pressure 30.29 in    
Wind  
Wind Speed 3 mph ()    
Max Wind Speed 12 mph    
Max Gust Speed -    
Visibility 5.5 miles    
Events Fog    
Averages and records for this station are not official NWS values.
T = Trace of Precipitation, MM = Missing Value Source: Averaged Metar Reports

Daily Weather History Graph

Daily Weather History Graph

Search for Another Location

Airport or City:

Trip Planner

Search our weather history database for the weather conditions in past years. The results will help you decide how hot, cold, wet, or windy it might be!

Date:

Astronomy

Dec. 03, 2012 Rise Set
Actual Time 6:59 AM EST 4:55 PM EST
Civil Twilight 6:31 AM EST 5:23 PM EST
Nautical Twilight 5:59 AM EST 5:55 PM EST
Astronomical Twilight 5:29 AM EST 6:25 PM EST
Moon 9:34 PM EST (12/3) 10:26 AM EST (12/3)
Length of Visible Light 10h 52m
Length of Day
9h 56m
Waning Gibbous, 78% of the Moon is Illuminated
Dec 3
Waning Gibbous
Dec 6
Last Quarter
Dec 13
New
Dec 20
First Quarter
Dec 28
Full

Hourly Weather History & Observations

Time (EST) Temp. Dew Point Humidity Pressure Visibility Wind Dir Wind Speed Gust Speed Precip Events Conditions
12:54 AM 50.0 °F 46.0 °F 86% 30.29 in 8.0 mi Calm Calm - N/A   Clear
1:54 AM 50.0 °F 46.0 °F 86% 30.29 in 7.0 mi SW 3.5 mph - N/A   Clear
2:54 AM 52.0 °F 48.9 °F 89% 30.28 in 6.0 mi SW 5.8 mph - N/A   Clear
3:54 AM 54.0 °F 52.0 °F 93% 30.27 in 7.0 mi SW 4.6 mph - N/A   Clear
4:38 AM 53.6 °F 51.8 °F 94% 30.28 in 1.5 mi WSW 3.5 mph - N/A   Clear
4:50 AM 52.0 °F 51.1 °F 97% 30.27 in 0.5 mi SW 3.5 mph - N/A Fog Fog
5:01 AM 53.6 °F 51.8 °F 94% 30.29 in 1.0 mi SW 3.5 mph - N/A   Clear
5:04 AM 51.8 °F 51.8 °F 100% 30.29 in 3.0 mi Calm Calm - N/A   Clear
5:23 AM 50.0 °F 48.2 °F 94% 30.29 in 1.5 mi SW 3.5 mph - N/A   Clear
5:27 AM 51.8 °F 48.2 °F 88% 30.29 in 0.5 mi SW 3.5 mph - N/A Fog Fog
5:38 AM 53.6 °F 51.8 °F 94% 30.29 in 0.2 mi Calm Calm - N/A Fog Fog
5:47 AM 53.6 °F 51.8 °F 94% 30.29 in 0.8 mi Calm Calm - N/A   Clear
5:52 AM 53.6 °F 51.8 °F 94% 30.29 in 0.5 mi Calm Calm - N/A Fog Fog
5:54 AM 51.1 °F 50.0 °F 96% 30.28 in 0.5 mi Calm Calm - N/A Fog Fog
6:01 AM 48.2 °F 46.4 °F 93% 30.29 in 0.2 mi Calm Calm - N/A Fog Fog
6:28 AM 48.2 °F 46.4 °F 93% 30.30 in 0.8 mi Calm Calm - N/A   Partly Cloudy
6:32 AM 48.2 °F 46.4 °F 93% 30.30 in 2.0 mi Calm Calm - N/A   Partly Cloudy
6:49 AM 48.2 °F 44.6 °F 87% 30.30 in 0.2 mi WSW 3.5 mph - N/A Fog Fog
6:54 AM 48.9 °F 46.0 °F 90% 30.30 in 0.2 mi WSW 3.5 mph - N/A Fog Fog
7:02 AM 50.0 °F 48.2 °F 94% 30.31 in 0.2 mi WSW 3.5 mph - N/A Fog Fog
7:11 AM 50.0 °F 48.2 °F 94% 30.31 in 4.0 mi WSW 3.5 mph - N/A   Partly Cloudy
7:54 AM 52.0 °F 50.0 °F 93% 30.30 in 4.0 mi SW 4.6 mph - N/A   Partly Cloudy
8:54 AM 63.0 °F 57.9 °F 84% 30.31 in 10.0 mi West 6.9 mph - N/A   Clear
9:54 AM 66.9 °F 57.0 °F 70% 30.32 in 10.0 mi West 9.2 mph - N/A   Clear
10:54 AM 70.0 °F 57.0 °F 63% 30.30 in 10.0 mi West 9.2 mph - N/A   Clear
11:54 AM 73.0 °F 55.9 °F 55% 30.28 in 10.0 mi West 8.1 mph - N/A   Clear
12:54 PM 73.9 °F 55.0 °F 52% 30.26 in 10.0 mi West 11.5 mph - N/A   Scattered Clouds
1:54 PM 75.0 °F 52.0 °F 44% 30.24 in 10.0 mi WNW 11.5 mph - N/A   Scattered Clouds
2:54 PM 73.9 °F 53.1 °F 48% 30.24 in 10.0 mi SW 9.2 mph - N/A   Scattered Clouds
3:54 PM 73.0 °F 53.1 °F 49% 30.24 in 10.0 mi West 8.1 mph - N/A   Partly Cloudy
4:54 PM 66.0 °F 55.9 °F 70% 30.25 in 10.0 mi South 5.8 mph - N/A   Clear
5:54 PM 63.0 °F 55.9 °F 78% 30.27 in 10.0 mi SW 8.1 mph - N/A   Clear
6:54 PM 61.0 °F 55.0 °F 81% 30.28 in 10.0 mi SW 4.6 mph - N/A   Clear
7:54 PM 61.0 °F 55.0 °F 81% 30.28 in 10.0 mi SW 5.8 mph - N/A   Clear
8:54 PM 60.1 °F 55.0 °F 83% 30.28 in 10.0 mi SSW 5.8 mph - N/A   Clear
9:54 PM 57.9 °F 54.0 °F 87% 30.29 in 10.0 mi SW 3.5 mph - N/A   Clear
10:54 PM 57.0 °F 53.1 °F 87% 30.30 in 10.0 mi SW 3.5 mph - N/A   Clear
11:54 PM 53.1 °F 50.0 °F 89% 30.30 in 9.0 mi Calm Calm - N/A   Clear